Location: Newark
(23.5328°S, 46.7919°W)
Time: 23:26:47
(UTC+00:00)

N. Korean satellite - Pass Details

Date: 09 March 2021
Orbit: 453 x 499 km, 97.2° (Epoch: 12 April)

Event Time Altitude Azimuth Distance (km) Brightness Sun altitude
Rises 07:43:14 0° 19° (NNE) 2,575 10.3 -19.6°
Reaches altitude 10° 07:45:19 10° 23° (NNE) 1,701 9.4 -19.2°
Maximum altitude 07:48:55 58° 102° (ESE) 591 7.2 -18.4°
Drops below altitude 10° 07:52:35 10° 182° (S) 1,723 9.5 -17.5°
Sets 07:54:42 0° 185° (S) 2,611 10.4 -17.1°
